Vorticity
10 18 13 9 10 6 10 12 15 12 16 7 6 12 13 7 10 10 4 7 2 -3 -6 9 9 5 5
12 17 15 17 18 10 12 13 12 -3 39 15 3 -4 2 11 -4 21 -2 29 -1 9 -8 3 11 4 7
14 17 16 12 13 8 15 11 10 19 3 12 13 12 9 4 45 11 46 34 -35 11 2 -1 4 6 6
10 11 11 11 10 11 12 15 11 28 -7 14 12 -1 -30 0 17 -2 36 25 -18 12 4 4 1 4 -3
10 10 11 12 13 15 12 14 14 -21 18 32 -1 5 5 20 18 10 16 12 15 -23 25 18 -5 2 2
7 8 9 7 9 7 11 25 22 19 -22 36 18 -10 8 -34 20 20 -4 12 12 -2 20 -10 -9 1 -1
7 8 7 9 7 13 12 15 19 21 2 -9 32 0 42 21 11 10 -6 25 5 24 5 -6 -4 4 9
10 10 10 12 12 11 12 18 14 12 21 -11 24 -1 14 7 8 43 13 24 15 -6 19 -7 5 -3 8
16 21 24 24 24 13 14 18 18 24 19 13 20 -1 8 8 20 6 12 14 15 -6 -7 2 0 -4 13
23 22 21 25 23 14 16 21 21 17 2 23 10 15 27 19 20 19 23 4 9 12 18 0 0 13 13
19 23 25 23 23 22 15 15 24 19 -5 6 17 17 24 16 -14 -13 17 2 -1 10 15 6 13 12 10
28 30 38 29 29 18 16 9 13 2 13 -5 22 6 4 36 1 19 8 -6 11 6 7 13 10 9 18
17 24 23 27 15 -6 20 6 9 23 21 17 14 28 26 18 17 12 -1 6 -1 10 13 9 12 22 11
15 17 24 5 18 3 20 13 25 24 16 13 16 15 10 13 -1 -3 3 -0 9 10 9 14 16 11 16
15 18 13 9 2 17 35 29 21 23 20 15 6 4 1 4 9 2 9 10 10 13 16 14 19 26 18
27 4 4 14 14 11 12 3 15 4 11 7 5 2 5 2 2 8 9 11 15 18 24 16 7 6 8
9 10 0 13 19 14 43 3 4 9 9 4 5 3 5 8 10 12 17 24 22 10 3 6 9 -1 7
Height
5523 5523 5520 5518 5518 5517 5515 5512 5511 5509 5506 5505 5507 5507 5506 5505 5505 5506 5505 5505 5504 5505 5502 5501 5500 5497 5494
5504 5501 5498 5498 5497 5496 5497 5494 5493 5493 5488 5487 5489 5490 5491 5490 5490 5490 5490 5491 5492 5491 5489 5488 5486 5483 5481
5475 5479 5478 5478 5476 5476 5476 5475 5474 5472 5472 5472 5472 5473 5474 5475 5473 5476 5474 5475 5477 5476 5475 5474 5472 5470 5467
5450 5454 5456 5459 5455 5455 5454 5455 5455 5452 5453 5455 5456 5456 5457 5459 5459 5460 5460 5461 5462 5461 5461 5459 5458 5456 5451
5431 5431 5436 5435 5434 5434 5432 5432 5434 5433 5435 5435 5436 5439 5441 5442 5442 5444 5446 5447 5447 5446 5447 5445 5445 5441 5437
5412 5413 5415 5413 5412 5410 5410 5411 5413 5419 5415 5418 5417 5421 5423 5426 5428 5428 5429 5430 5431 5432 5433 5431 5430 5426 5422
5389 5394 5391 5395 5391 5391 5389 5389 5392 5394 5396 5398 5401 5403 5406 5410 5412 5413 5413 5414 5416 5418 5418 5417 5415 5411 5406
5363 5368 5367 5372 5369 5368 5368 5369 5370 5375 5378 5381 5385 5389 5391 5393 5394 5394 5398 5400 5402 5404 5404 5404 5400 5396 5390
5344 5345 5346 5347 5347 5345 5349 5350 5354 5358 5362 5368 5369 5372 5375 5378 5379 5382 5384 5386 5389 5390 5390 5388 5385 5380 5374
5326 5325 5323 5325 5327 5328 5332 5336 5338 5344 5350 5353 5357 5359 5361 5365 5367 5370 5371 5374 5376 5377 5375 5373 5369 5364 5357
5308 5308 5307 5309 5313 5318 5321 5324 5327 5331 5337 5340 5343 5345 5349 5353 5355 5357 5360 5362 5363 5363 5361 5358 5353 5347 5341
5292 5294 5296 5299 5304 5308 5312 5315 5318 5322 5325 5328 5331 5334 5337 5339 5343 5346 5348 5350 5349 5348 5345 5341 5336 5332 5328
5283 5285 5287 5292 5297 5301 5305 5308 5310 5312 5315 5318 5320 5322 5324 5329 5332 5335 5337 5337 5334 5332 5328 5324 5321 5318 5315
5275 5277 5281 5287 5291 5294 5296 5299 5301 5304 5307 5310 5312 5315 5318 5322 5325 5325 5323 5321 5319 5315 5312 5308 5305 5304 5302
5269 5271 5277 5281 5286 5288 5289 5292 5295 5298 5301 5304 5306 5309 5312 5313 5313 5312 5311 5307 5303 5300 5295 5293 5292 5291 5289
5264 5267 5272 5277 5280 5284 5287 5289 5292 5295 5297 5299 5301 5303 5303 5303 5302 5299 5295 5292 5288 5285 5282 5279 5277 5277 5277
5262 5266 5271 5274 5277 5280 5283 5286 5289 5292 5293 5295 5296 5295 5294 5292 5289 5285 5281 5277 5274 5271 5269 5266 5261 5260 5264